Regional Weather Roundup
Issued by NWS

Home | Current Version | Previous Version | Graphics & Text | Print | Product List | Glossary On
Versions: 1 2 3 4 5 6 7 8 9 10 11 12 13 14 15 16 17 18 19 20 21 22 23 24 25 26 27 28 29 30 31 32 33 34 35 36 37 38 39 40 41 42 43 44 45 46 47 48 49 50
000
ASUS43 KLOT 250808
RWRIL

ILLINOIS REGIONAL WEATHER ROUNDUP
NATIONAL WEATHER SERVICE CHICAGO/ROMEOVILLE IL
300 AM CDT SAT APR 25 2015

NOTE: "FAIR" INDICATES FEW OR NO CLOUDS BELOW 12,000 FEET WITH NO
SIGNIFICANT WEATHER AND/OR OBSTRUCTIONS TO VISIBILITY.

* THESE STATIONS ARE NOT UNDER NWS QUALITY CONTROL. THEY ALSO MAY NOT
  REPORT WEATHER SUCH AS PRECIPITATION OR FOG.

ILZ001-002-007-009-015-016-024-250900-
NORTHWEST ILLINOIS

CITY           SKY/WX    TMP DP  RH WIND       PRES   REMARKS
MOLINE         LGT RAIN  44  40  85 NE14      29.72S FOG
STERLING*      CLOUDY    41  36  81 NE22      29.76F
SAVANNA*       CLOUDY    43  37  79 E18       29.78S
$$

ILZ003-004-008-010-011-017-018-250900-
NORTH CENTRAL ILLINOIS

CITY           SKY/WX    TMP DP  RH WIND       PRES   REMARKS
ROCKFORD       CLOUDY    43  35  73 E16       29.82F
FREEPORT*      CLOUDY    40  36  84 E15       29.82F
ROCHELLE*      CLOUDY    41  37  86 E17G23    29.79F
DE KALB*       CLOUDY    40  36  87 E20G26    29.80F
PERU*          LGT RAIN  43  40  91 E17       29.76F
$$

ILZ005-006-012>014-019>023-250900-
NORTHEAST ILLINOIS

CITY           SKY/WX    TMP DP  RH WIND       PRES   REMARKS
CHICAGO-OHARE  CLOUDY    43  38  82 E15       29.83F
CHICAGO-MIDWAY CLOUDY    46  40  79 E15       29.82F
AURORA         CLOUDY    43  37  79 NE14      29.81S
LANSING*       MOCLDY    44  38  80 E12       29.81F
JOLIET*        MOCLDY    45  41  86 NE10      29.81R
WAUKEGAN       CLOUDY    39  37  92 E13       29.86F WCI  31
DUPAGE AIRPORT CLOUDY    43  38  82 E15       29.82R
KANKAKEE*      CLOUDY    51  35  54 E15       29.77S
WHEELING       CLOUDY    42  37  82 E12       29.86F
MORRIS*        CLOUDY    43  40  88 NE6       29.76S
ROMEOVILLE*    MOCLDY    43  39  86 E15       29.81R
NORTHERLY ISL    N/A     43  39  86 NE15        N/A
$$

LMZ740>746-250900-
SOUTHERN LAKE MICHIGAN

STATION/POSITION SKY/WX   TEMP    WIND        PRES    VSBY  WAVE
                          AIR SEA DIR/SP/G                  HT/PER
                          (F)     (DEG/KT/KT) (MB)    (MI)  (FT/S)
HARRISON CRIB              41      60/ 19/ 22   N/A
BURNHAM HARBOR             43      70/ 14/ 18   N/A
CALUMET HARBOR             44      50/ 14/ 18   N/A
BURNS HARBOR               46      90/ 15/ 20 1010.5F
MICHIGAN CITY              44      50/ 16/ 21   N/A
MICHIGAN CITY 6N           45 44  100/ 16/ 19   N/A           3/ 4
$$

ILZ025>027-034>036-040-047-049-050-058-095>099-250900-
WEST-CENTRAL ILLINOIS

CITY           SKY/WX    TMP DP  RH WIND       PRES   REMARKS
QUINCY         CLOUDY    52  47  83 SE8       29.62F
GALESBURG*     CLOUDY    46  43  87 E10       29.68F
MACOMB*        CLOUDY    52  46  79 SE12      29.69F
JACKSONVILLE*  CLOUDY    52  48  87 SE8       29.67S
PITTSFIELD*    CLOUDY    53  46  78 SE9       29.65F
$$

ILZ028>032-037-038-041>044-048-051>054-059>061-250900-
CENTRAL ILLINOIS

CITY           SKY/WX    TMP DP  RH WIND       PRES   REMARKS
PONTIAC        DRIZZLE   48  41  75 E13       29.77F
BLOOMINGTON    CLOUDY    50  45  83 SE10      29.74F
DECATUR        CLOUDY    51  45  79 E9        29.72F
PEORIA         LGT RAIN  53  42  66 E7        29.71F
LACON*         RAIN      45  39  79 E13       29.73F
LINCOLN*       CLOUDY    51  45  80 E7        29.69F
SPRINGFIELD    CLOUDY    51  46  83 SE8       29.69F
TAYLORVILLE    CLOUDY    50  43  76 E7        29.70F
$$

ILZ033-039-045-046-055>057-062-063-250900-
EAST-CENTRAL ILLINOIS

CITY           SKY/WX    TMP DP  RH WIND       PRES   REMARKS
CHAMPAIGN      LGT RAIN  51  42  71 E10       29.75F
DANVILLE*      CLOUDY    52  38  59 E7        29.73F
RANTOUL*       HVY RAIN  50  46  84 E5        29.76S
MATTOON        CLOUDY    53  40  61 SE10      29.73F
PARIS*         CLOUDY    52  44  74 E7        29.77F
$$

ILZ079-100>102-250900-
SOUTHWEST ILLINOIS

CITY           SKY/WX    TMP DP  RH WIND       PRES   REMARKS
ALTON          CLOUDY    54  47  78 SE7       29.68F
BELLEVILLE     LGT RAIN  54  52  94 S5        29.67F
CAHOKIA*       CLOUDY    55  49  80 SE7       29.66F
SPARTA*        CLOUDY    55  51  87 S6        29.70F
$$

ILZ064>066-069>071-074>076-080>082-084>086-088>090-092>094-250900-
SOUTH-CENTRAL ILLINOIS

CITY           SKY/WX    TMP DP  RH WIND       PRES   REMARKS
CARBONDALE     CLOUDY    56  50  80 E7        29.69F
CAIRO*         CLOUDY    57  55  92 SE7       29.69F
EFFINGHAM*     CLOUDY    54  40  59 E3        29.75R
MARION         CLOUDY    57  50  77 E6        29.71F
MT. VERNON     CLOUDY    55  43  62 SE6       29.72F
CENTRALIA*     CLOUDY    55  44  67 SE7       29.70F
SALEM*         CLOUDY    56  43  61 SE6       29.71S
METROPOLIS*    CLOUDY    57  54  88 CALM      29.72F
$$

ILZ067-068-072-073-078-083-087-091-250900-
SOUTHEAST ILLINOIS

CITY           SKY/WX    TMP DP  RH WIND       PRES   REMARKS
LAWRENCEVILLE  CLOUDY    55  45  68 E7        29.76F
FLORA*         CLOUDY    54  43  66 SE7       29.73S
FAIRFIELD*     CLOUDY    56  44  64 SE6       29.71F
HARRISBURG*    CLOUDY    56  48  75 E5        29.74F
ROBINSON*      CLOUDY    54  46  73 E9        29.76F
CARMI*         CLOUDY    56  42  59 SE7       29.74F
$$

ABBREVIATIONS USED IN REMARKS
   TC - TEMPERATURE IN CELSIUS
  WCI - WIND CHILL INDEX
   HX - HEAT INDEX
  VSB - VISIBILITY
$$




USA.gov is the U.S. government's official web portal to all federal, state and local government web resources and services.